Year,Month,Day,Hour,Minute,Value (Times are PST for temperature in C)
2016,03,30,00,00,6.30
2016,03,30,00,01,6.30
2016,03,30,00,02,6.30
2016,03,30,00,03,6.30
2016,03,30,00,04,6.20
2016,03,30,00,05,6.20
2016,03,30,00,06,6.20
2016,03,30,00,07,6.20
2016,03,30,00,08,6.20
2016,03,30,00,09,6.20
2016,03,30,00,10,6.20
2016,03,30,00,11,6.20
2016,03,30,00,12,6.20
2016,03,30,00,13,6.20
2016,03,30,00,14,6.20
2016,03,30,00,15,6.20
2016,03,30,00,16,6.10
2016,03,30,00,17,6.10
2016,03,30,00,18,6.10
2016,03,30,00,19,6.10
2016,03,30,00,20,6.10
2016,03,30,00,21,6.10
2016,03,30,00,22,6.10
2016,03,30,00,23,6.00
2016,03,30,00,24,6.00
2016,03,30,00,25,6.00
2016,03,30,00,26,6.00
2016,03,30,00,27,5.90
2016,03,30,00,28,5.90
2016,03,30,00,29,5.90
2016,03,30,00,30,5.90
2016,03,30,00,31,5.90
2016,03,30,00,32,5.90
2016,03,30,00,33,5.90
2016,03,30,00,34,5.90
2016,03,30,00,35,5.90
2016,03,30,00,36,5.80
2016,03,30,00,37,5.80
2016,03,30,00,38,5.80
2016,03,30,00,39,5.80
2016,03,30,00,40,5.80
2016,03,30,00,41,5.80
2016,03,30,00,42,5.80
2016,03,30,00,43,5.80
2016,03,30,00,44,5.70
2016,03,30,00,45,5.70
2016,03,30,00,46,5.70
2016,03,30,00,47,5.70
2016,03,30,00,48,5.70
2016,03,30,00,49,5.70
2016,03,30,00,50,5.70
2016,03,30,00,51,5.70
2016,03,30,00,52,5.70
2016,03,30,00,53,5.70
2016,03,30,00,54,5.60
2016,03,30,00,55,5.60
2016,03,30,00,56,5.60
2016,03,30,00,57,5.60
2016,03,30,00,58,5.60
2016,03,30,00,59,5.50
2016,03,30,01,00,5.50
2016,03,30,01,01,5.50
2016,03,30,01,02,5.50
2016,03,30,01,03,5.50
2016,03,30,01,04,5.50
2016,03,30,01,05,5.50
2016,03,30,01,06,5.40
2016,03,30,01,07,5.40
2016,03,30,01,08,5.40
2016,03,30,01,09,5.40
2016,03,30,01,10,5.30
2016,03,30,01,11,5.30
2016,03,30,01,12,5.30
2016,03,30,01,13,5.30
2016,03,30,01,14,5.30
2016,03,30,01,15,5.30
2016,03,30,01,16,5.30
2016,03,30,01,17,5.30
2016,03,30,01,18,5.30
2016,03,30,01,19,5.30
2016,03,30,01,20,5.30
2016,03,30,01,21,5.30
2016,03,30,01,22,5.20
2016,03,30,01,23,5.20
2016,03,30,01,24,5.20
2016,03,30,01,25,5.20
2016,03,30,01,26,5.20
2016,03,30,01,27,5.20
2016,03,30,01,28,5.20
2016,03,30,01,29,5.20
2016,03,30,01,30,5.20
2016,03,30,01,31,5.20
2016,03,30,01,32,5.20
2016,03,30,01,33,5.20
2016,03,30,01,34,5.10
2016,03,30,01,35,5.10
2016,03,30,01,36,5.10
2016,03,30,01,37,5.10
2016,03,30,01,38,5.10
2016,03,30,01,39,5.10
2016,03,30,01,40,5.00
2016,03,30,01,41,5.00
2016,03,30,01,42,5.00
2016,03,30,01,43,5.00
2016,03,30,01,44,5.00
2016,03,30,01,45,4.90
2016,03,30,01,46,4.90
2016,03,30,01,47,4.90
2016,03,30,01,48,4.90
2016,03,30,01,49,4.90
2016,03,30,01,50,4.90
2016,03,30,01,51,4.90
2016,03,30,01,52,4.90
2016,03,30,01,53,4.90
2016,03,30,01,54,4.90
2016,03,30,01,55,4.90
2016,03,30,01,56,4.90
2016,03,30,01,57,4.90
2016,03,30,01,58,4.80
2016,03,30,01,59,4.80
2016,03,30,02,00,4.80
2016,03,30,02,01,4.80
2016,03,30,02,02,4.80
2016,03,30,02,03,4.70
2016,03,30,02,04,4.70
2016,03,30,02,05,4.70
2016,03,30,02,06,4.70
2016,03,30,02,07,4.70
2016,03,30,02,08,4.70
2016,03,30,02,09,4.70
2016,03,30,02,10,4.70
2016,03,30,02,11,4.70
2016,03,30,02,12,4.70
2016,03,30,02,13,4.70
2016,03,30,02,14,4.70
2016,03,30,02,15,4.60
2016,03,30,02,16,4.60
2016,03,30,02,17,4.60
2016,03,30,02,18,4.60
2016,03,30,02,19,4.60
2016,03,30,02,20,4.60
2016,03,30,02,21,4.50
2016,03,30,02,22,4.50
2016,03,30,02,23,4.50
2016,03,30,02,24,4.50
2016,03,30,02,25,4.50
2016,03,30,02,26,4.50
2016,03,30,02,27,4.50
2016,03,30,02,28,4.50
2016,03,30,02,29,4.50
2016,03,30,02,30,4.50
2016,03,30,02,31,4.40
2016,03,30,02,32,4.40
2016,03,30,02,33,4.40
2016,03,30,02,34,4.40
2016,03,30,02,35,4.40
2016,03,30,02,36,4.40
2016,03,30,02,37,4.40
2016,03,30,02,38,4.40
2016,03,30,02,39,4.30
2016,03,30,02,40,4.30
2016,03,30,02,41,4.30
2016,03,30,02,42,4.30
2016,03,30,02,43,4.30
2016,03,30,02,44,4.30
2016,03,30,02,45,4.30
2016,03,30,02,46,4.30
2016,03,30,02,47,4.30
2016,03,30,02,48,4.30
2016,03,30,02,49,4.30
2016,03,30,02,50,4.20
2016,03,30,02,51,4.20
2016,03,30,02,52,4.20
2016,03,30,02,53,4.20
2016,03,30,02,54,4.20
2016,03,30,02,55,4.20
2016,03,30,02,56,4.20
2016,03,30,02,57,4.20
2016,03,30,02,58,4.20
2016,03,30,02,59,4.20
2016,03,30,03,00,4.20
2016,03,30,03,01,4.20
2016,03,30,03,02,4.20
2016,03,30,03,03,4.20
2016,03,30,03,04,4.20
2016,03,30,03,05,4.10
2016,03,30,03,06,4.10
2016,03,30,03,07,4.10
2016,03,30,03,08,4.10
2016,03,30,03,09,4.10
2016,03,30,03,10,4.10
2016,03,30,03,11,4.00
2016,03,30,03,12,4.00
2016,03,30,03,13,4.00
2016,03,30,03,14,4.00
2016,03,30,03,15,4.00
2016,03,30,03,16,4.00
2016,03,30,03,17,3.90
2016,03,30,03,18,3.90
2016,03,30,03,19,3.90
2016,03,30,03,20,3.90
2016,03,30,03,21,3.90
2016,03,30,03,22,3.90
2016,03,30,03,23,3.90
2016,03,30,03,24,3.90
2016,03,30,03,25,3.90
2016,03,30,03,26,3.90
2016,03,30,03,27,3.80
2016,03,30,03,28,3.80
2016,03,30,03,29,3.80
2016,03,30,03,30,3.80
2016,03,30,03,31,3.80
2016,03,30,03,32,3.80
2016,03,30,03,33,3.80
2016,03,30,03,34,3.80
2016,03,30,03,35,3.80
2016,03,30,03,36,3.80
2016,03,30,03,37,3.80
2016,03,30,03,38,3.70
2016,03,30,03,39,3.70
2016,03,30,03,40,3.70
2016,03,30,03,41,3.70
2016,03,30,03,42,3.70
2016,03,30,03,43,3.70
2016,03,30,03,44,3.70
2016,03,30,03,45,3.70
2016,03,30,03,46,3.60
2016,03,30,03,47,3.60
2016,03,30,03,48,3.60
2016,03,30,03,49,3.60
2016,03,30,03,50,3.60
2016,03,30,03,51,3.60
2016,03,30,03,52,3.60
2016,03,30,03,53,3.60
2016,03,30,03,54,3.60
2016,03,30,03,55,3.60
2016,03,30,03,56,3.50
2016,03,30,03,57,3.50
2016,03,30,03,58,3.50
2016,03,30,03,59,3.50
2016,03,30,04,00,3.50
2016,03,30,04,01,3.50
2016,03,30,04,02,3.50
2016,03,30,04,03,3.50
2016,03,30,04,04,3.50
2016,03,30,04,05,3.50
2016,03,30,04,06,3.50
2016,03,30,04,07,3.50
2016,03,30,04,08,3.40
2016,03,30,04,09,3.50
2016,03,30,04,10,3.50
2016,03,30,04,11,3.50
2016,03,30,04,12,3.50
2016,03,30,04,13,3.50
2016,03,30,04,14,3.50
2016,03,30,04,15,3.50
2016,03,30,04,16,3.50
2016,03,30,04,17,3.40
2016,03,30,04,18,3.40
2016,03,30,04,19,3.40
2016,03,30,04,20,3.40
2016,03,30,04,21,3.40
2016,03,30,04,22,3.30
2016,03,30,04,23,3.30
2016,03,30,04,24,3.30
2016,03,30,04,25,3.30
2016,03,30,04,26,3.30
2016,03,30,04,27,3.30
2016,03,30,04,28,3.30
2016,03,30,04,29,3.30
2016,03,30,04,30,3.30
2016,03,30,04,31,3.30
2016,03,30,04,32,3.30
2016,03,30,04,33,3.30
2016,03,30,04,34,3.30
2016,03,30,04,35,3.20
2016,03,30,04,36,3.20
2016,03,30,04,37,3.20
2016,03,30,04,38,3.20
2016,03,30,04,39,3.20
2016,03,30,04,40,3.20
2016,03,30,04,41,3.10
2016,03,30,04,42,3.10
2016,03,30,04,43,3.10
2016,03,30,04,44,3.10
2016,03,30,04,45,3.10
2016,03,30,04,46,3.10
2016,03,30,04,47,3.10
2016,03,30,04,48,3.10
2016,03,30,04,49,3.10
2016,03,30,04,50,3.10
2016,03,30,04,51,3.00
2016,03,30,04,52,3.00
2016,03,30,04,53,3.00
2016,03,30,04,54,3.00
2016,03,30,04,55,3.00
2016,03,30,04,56,3.00
2016,03,30,04,57,3.00
2016,03,30,04,58,3.00
2016,03,30,04,59,3.00
2016,03,30,05,00,3.00
2016,03,30,05,01,3.00
2016,03,30,05,02,2.90
2016,03,30,05,03,3.00
2016,03,30,05,04,2.90
2016,03,30,05,05,2.90
2016,03,30,05,06,2.90
2016,03,30,05,07,2.90
2016,03,30,05,08,2.90
2016,03,30,05,09,2.90
2016,03,30,05,10,2.90
2016,03,30,05,11,2.90
2016,03,30,05,12,2.80
2016,03,30,05,13,2.80
2016,03,30,05,14,2.80
2016,03,30,05,15,2.80
2016,03,30,05,16,2.80
2016,03,30,05,17,2.80
2016,03,30,05,18,2.80
2016,03,30,05,19,2.80
2016,03,30,05,20,2.80
2016,03,30,05,21,2.70
2016,03,30,05,22,2.70
2016,03,30,05,23,2.70
2016,03,30,05,24,2.70
2016,03,30,05,25,2.70
2016,03,30,05,26,2.80
2016,03,30,05,27,2.80
2016,03,30,05,28,2.70
2016,03,30,05,29,2.70
2016,03,30,05,30,2.70
2016,03,30,05,31,2.70
2016,03,30,05,32,2.70
2016,03,30,05,33,2.70
2016,03,30,05,34,2.70
2016,03,30,05,35,2.70
2016,03,30,05,36,2.60
2016,03,30,05,37,2.60
2016,03,30,05,38,2.60
2016,03,30,05,39,2.60
2016,03,30,05,40,2.60
2016,03,30,05,41,2.60
2016,03,30,05,42,2.60
2016,03,30,05,43,2.50
2016,03,30,05,44,2.50
2016,03,30,05,45,2.50
2016,03,30,05,46,2.50
2016,03,30,05,47,2.50
2016,03,30,05,48,2.40
2016,03,30,05,49,2.40
2016,03,30,05,50,2.40
2016,03,30,05,51,2.40
2016,03,30,05,52,2.40
2016,03,30,05,53,2.40
2016,03,30,05,54,2.40
2016,03,30,05,55,2.40
2016,03,30,05,56,2.40
2016,03,30,05,57,2.40
2016,03,30,05,58,2.40
2016,03,30,05,59,2.30
2016,03,30,06,00,2.30
2016,03,30,06,01,2.30
2016,03,30,06,02,2.30
2016,03,30,06,03,2.30
2016,03,30,06,04,2.30
2016,03,30,06,05,2.30
2016,03,30,06,06,2.30
2016,03,30,06,07,2.30
2016,03,30,06,08,2.30
2016,03,30,06,09,2.30
2016,03,30,06,10,2.30
2016,03,30,06,11,2.30
2016,03,30,06,12,2.30
2016,03,30,06,13,2.30
2016,03,30,06,14,2.30
2016,03,30,06,15,2.30
2016,03,30,06,16,2.30
2016,03,30,06,17,2.30
2016,03,30,06,18,2.20
2016,03,30,06,19,2.20
2016,03,30,06,20,2.20
2016,03,30,06,21,2.20
2016,03,30,06,22,2.20
2016,03,30,06,23,2.20
2016,03,30,06,24,2.20
2016,03,30,06,25,2.20
2016,03,30,06,26,2.20
2016,03,30,06,27,2.20
2016,03,30,06,28,2.20
2016,03,30,06,29,2.20
2016,03,30,06,30,2.20
2016,03,30,06,31,2.10
2016,03,30,06,32,2.10
2016,03,30,06,33,2.10
2016,03,30,06,34,2.10
2016,03,30,06,35,2.10
2016,03,30,06,36,2.10
2016,03,30,06,37,2.10
2016,03,30,06,38,2.10
2016,03,30,06,39,2.10
2016,03,30,06,40,2.10
2016,03,30,06,41,2.10
2016,03,30,06,42,2.10
2016,03,30,06,43,2.10
2016,03,30,06,44,2.10
2016,03,30,06,45,2.10
2016,03,30,06,46,2.10
2016,03,30,06,47,2.10
2016,03,30,06,48,2.10
2016,03,30,06,49,2.10
2016,03,30,06,50,2.10
2016,03,30,06,51,2.10
2016,03,30,06,52,2.10
2016,03,30,06,53,2.10
2016,03,30,06,54,2.10
2016,03,30,06,55,2.10
2016,03,30,06,56,2.10
2016,03,30,06,57,2.10
2016,03,30,06,58,2.10
2016,03,30,06,59,2.10
2016,03,30,07,00,2.10
2016,03,30,07,01,2.10
2016,03,30,07,02,2.00
2016,03,30,07,03,2.00
2016,03,30,07,04,2.00
2016,03,30,07,05,2.00
2016,03,30,07,06,2.00
2016,03,30,07,07,1.90
2016,03,30,07,08,1.90
2016,03,30,07,09,1.90
2016,03,30,07,10,1.90
2016,03,30,07,11,1.90
2016,03,30,07,12,1.90
2016,03,30,07,13,1.90
2016,03,30,07,14,1.90
2016,03,30,07,15,1.90
2016,03,30,07,16,1.90
2016,03,30,07,17,1.90
2016,03,30,07,18,1.90
2016,03,30,07,19,1.90
2016,03,30,07,20,1.90
2016,03,30,07,21,1.90
2016,03,30,07,22,1.90
2016,03,30,07,23,1.90
2016,03,30,07,24,1.90
2016,03,30,07,25,1.90
2016,03,30,07,26,1.90
2016,03,30,07,27,1.90
2016,03,30,07,28,1.90
2016,03,30,07,29,1.90
2016,03,30,07,30,1.90
2016,03,30,07,31,1.90
2016,03,30,07,32,1.80
2016,03,30,07,33,1.80
2016,03,30,07,34,1.80
2016,03,30,07,35,1.80
2016,03,30,07,36,1.80
2016,03,30,07,37,1.80
2016,03,30,07,38,1.80
2016,03,30,07,39,1.80
2016,03,30,07,40,1.80
2016,03,30,07,41,1.80
2016,03,30,07,42,1.80
2016,03,30,07,43,1.80
2016,03,30,07,44,1.80
2016,03,30,07,45,1.80
2016,03,30,07,46,1.80
2016,03,30,07,47,1.80
2016,03,30,07,48,1.80
2016,03,30,07,49,1.80
2016,03,30,07,50,1.80
2016,03,30,07,51,1.80
2016,03,30,07,52,1.80
2016,03,30,07,53,1.80
2016,03,30,07,54,1.80
2016,03,30,07,55,1.80
2016,03,30,07,56,1.80
2016,03,30,07,57,1.80
2016,03,30,07,58,1.80
2016,03,30,07,59,1.80
2016,03,30,08,00,1.80
2016,03,30,08,01,1.80
2016,03,30,08,02,1.80
2016,03,30,08,03,1.80
2016,03,30,08,04,1.80
2016,03,30,08,05,1.80
2016,03,30,08,06,1.80
2016,03,30,08,07,1.80
2016,03,30,08,08,1.80
2016,03,30,08,09,1.80
2016,03,30,08,10,1.80
2016,03,30,08,11,1.80
2016,03,30,08,12,1.80
2016,03,30,08,13,1.80
2016,03,30,08,14,1.80
2016,03,30,08,15,1.80
2016,03,30,08,16,1.80
2016,03,30,08,17,1.80
2016,03,30,08,18,1.80
2016,03,30,08,19,1.80
2016,03,30,08,20,1.90
2016,03,30,08,21,1.90
2016,03,30,08,22,1.90
2016,03,30,08,23,1.90
2016,03,30,08,24,1.90
2016,03,30,08,25,1.90
2016,03,30,08,26,1.90
2016,03,30,08,27,1.90
2016,03,30,08,28,2.00
2016,03,30,08,29,2.00
2016,03,30,08,30,2.10
2016,03,30,08,31,2.10
2016,03,30,08,32,2.20
2016,03,30,08,33,2.30
2016,03,30,08,34,2.40
2016,03,30,08,35,2.60
2016,03,30,08,36,2.70
2016,03,30,08,37,2.80
2016,03,30,08,38,2.90
2016,03,30,08,39,3.00
2016,03,30,08,40,3.10
2016,03,30,08,41,3.20
2016,03,30,08,42,3.40
2016,03,30,08,43,3.50
2016,03,30,08,44,3.60
2016,03,30,08,45,3.70
2016,03,30,08,46,3.80
2016,03,30,08,47,3.90
2016,03,30,08,48,4.00
2016,03,30,08,49,4.10
2016,03,30,08,50,4.20
2016,03,30,08,51,4.30
2016,03,30,08,52,4.30
2016,03,30,08,53,4.40
2016,03,30,08,54,4.50
2016,03,30,08,55,4.60
2016,03,30,08,56,4.70
2016,03,30,08,57,4.80
2016,03,30,08,58,4.90
2016,03,30,08,59,5.00
2016,03,30,09,00,5.00
2016,03,30,09,01,5.10
2016,03,30,09,02,5.10
2016,03,30,09,03,5.20
2016,03,30,09,04,5.30
2016,03,30,09,05,5.30
2016,03,30,09,06,5.30
2016,03,30,09,07,5.40
2016,03,30,09,08,5.40
2016,03,30,09,09,5.50
2016,03,30,09,10,5.50
2016,03,30,09,11,5.60
2016,03,30,09,12,5.70
2016,03,30,09,13,5.70
2016,03,30,09,14,5.80
2016,03,30,09,15,5.80
2016,03,30,09,16,5.90
2016,03,30,09,17,6.00
2016,03,30,09,18,6.10
2016,03,30,09,19,6.20
2016,03,30,09,20,6.30
2016,03,30,09,21,6.30
2016,03,30,09,22,6.40
2016,03,30,09,23,6.50
2016,03,30,09,24,6.60
2016,03,30,09,25,6.60
2016,03,30,09,26,6.70
2016,03,30,09,27,6.70
2016,03,30,09,28,6.70
2016,03,30,09,29,6.80
2016,03,30,09,30,6.80
2016,03,30,09,31,6.80
2016,03,30,09,32,6.90
2016,03,30,09,33,6.90
2016,03,30,09,34,7.00
2016,03,30,09,35,7.00
2016,03,30,09,36,7.10
2016,03,30,09,37,7.20
2016,03,30,09,38,7.20
2016,03,30,09,39,7.30
2016,03,30,09,40,7.30
2016,03,30,09,41,7.40
2016,03,30,09,42,7.50
2016,03,30,09,43,7.50
2016,03,30,09,44,7.60
2016,03,30,09,45,7.60
2016,03,30,09,46,7.70
2016,03,30,09,47,7.80
2016,03,30,09,48,7.80
2016,03,30,09,49,7.90
2016,03,30,09,50,7.90
2016,03,30,09,51,8.00
2016,03,30,09,52,8.10
2016,03,30,09,53,8.20
2016,03,30,09,54,8.30
2016,03,30,09,55,8.40
2016,03,30,09,56,8.50
2016,03,30,09,57,8.60
2016,03,30,09,58,8.70
2016,03,30,09,59,8.80
2016,03,30,10,00,8.90
2016,03,30,10,01,9.00
2016,03,30,10,02,9.10
2016,03,30,10,03,9.20
2016,03,30,10,04,9.30
2016,03,30,10,05,9.40
2016,03,30,10,06,9.50
2016,03,30,10,07,9.50
2016,03,30,10,08,9.60
2016,03,30,10,09,9.70
2016,03,30,10,10,9.80
2016,03,30,10,11,9.80
2016,03,30,10,12,9.90
2016,03,30,10,13,10.00
2016,03,30,10,14,10.10
2016,03,30,10,15,10.20
2016,03,30,10,16,10.30
2016,03,30,10,17,10.30
2016,03,30,10,18,10.40
2016,03,30,10,19,10.50
2016,03,30,10,20,10.50
2016,03,30,10,21,10.50
2016,03,30,10,22,10.50
2016,03,30,10,23,10.50
2016,03,30,10,24,10.60
2016,03,30,10,25,10.70
2016,03,30,10,26,10.80
2016,03,30,10,27,10.80
2016,03,30,10,28,10.90
2016,03,30,10,29,10.90
2016,03,30,10,30,10.90
2016,03,30,10,31,10.90
2016,03,30,10,32,10.80
2016,03,30,10,33,10.80
2016,03,30,10,34,10.70
2016,03,30,10,35,10.70
2016,03,30,10,36,10.60
2016,03,30,10,37,10.60
2016,03,30,10,38,10.60
2016,03,30,10,39,10.60
2016,03,30,10,40,10.70
2016,03,30,10,41,10.70
2016,03,30,10,42,10.70
2016,03,30,10,43,10.80
2016,03,30,10,44,10.90
2016,03,30,10,45,11.00
2016,03,30,10,46,11.20
2016,03,30,10,47,11.30
2016,03,30,10,48,11.50
2016,03,30,10,49,11.60
2016,03,30,10,50,11.70
2016,03,30,10,51,11.80
2016,03,30,10,52,12.00
2016,03,30,10,53,12.10
2016,03,30,10,54,12.30
2016,03,30,10,55,12.40
2016,03,30,10,56,12.40
2016,03,30,10,57,12.50
2016,03,30,10,58,12.60
2016,03,30,10,59,12.60
2016,03,30,11,00,12.70
2016,03,30,11,01,12.70
2016,03,30,11,02,12.70
2016,03,30,11,03,12.70
2016,03,30,11,04,12.70
2016,03,30,11,05,12.70
2016,03,30,11,06,12.70
2016,03,30,11,07,12.70
2016,03,30,11,08,12.70
2016,03,30,11,09,12.80
2016,03,30,11,10,12.90
2016,03,30,11,11,13.00
2016,03,30,11,12,13.00
2016,03,30,11,13,13.10
2016,03,30,11,14,13.10
2016,03,30,11,15,13.20
2016,03,30,11,16,13.20
2016,03,30,11,17,13.20
2016,03,30,11,18,13.30
2016,03,30,11,19,13.40
2016,03,30,11,20,13.50
2016,03,30,11,21,13.50
2016,03,30,11,22,13.60
2016,03,30,11,23,13.70
2016,03,30,11,24,13.90
2016,03,30,11,25,14.00
2016,03,30,11,26,14.10
2016,03,30,11,27,14.10
2016,03,30,11,28,14.10
2016,03,30,11,29,14.10
2016,03,30,11,30,14.10
2016,03,30,11,31,14.20
2016,03,30,11,32,14.20
2016,03,30,11,33,14.40
2016,03,30,11,34,14.50
2016,03,30,11,35,14.60
2016,03,30,11,36,14.80
2016,03,30,11,37,14.90
2016,03,30,11,38,14.90
2016,03,30,11,39,15.00
2016,03,30,11,40,15.10
2016,03,30,11,41,15.10
2016,03,30,11,42,15.20
2016,03,30,11,43,15.30
2016,03,30,11,44,15.30
2016,03,30,11,45,15.20
2016,03,30,11,46,15.20
2016,03,30,11,47,15.20
2016,03,30,11,48,15.20
2016,03,30,11,49,15.20
2016,03,30,11,50,15.20
2016,03,30,11,51,15.20
2016,03,30,11,52,15.20
2016,03,30,11,53,15.20
2016,03,30,11,54,15.20
2016,03,30,11,55,15.20
2016,03,30,11,56,15.20
2016,03,30,11,57,15.20
2016,03,30,11,58,15.30
2016,03,30,11,59,15.40
2016,03,30,12,00,15.40
2016,03,30,12,01,15.50
2016,03,30,12,02,15.60
2016,03,30,12,03,15.70
2016,03,30,12,04,15.90
2016,03,30,12,05,16.00
2016,03,30,12,06,16.10
2016,03,30,12,07,16.20
2016,03,30,12,08,16.30
2016,03,30,12,09,16.30
2016,03,30,12,10,16.40
2016,03,30,12,11,16.40
2016,03,30,12,12,16.50
2016,03,30,12,13,16.50
2016,03,30,12,14,16.50
2016,03,30,12,15,16.60
2016,03,30,12,16,16.60
2016,03,30,12,17,16.60
2016,03,30,12,18,16.60
2016,03,30,12,19,16.70
2016,03,30,12,20,16.70
2016,03,30,12,21,16.70
2016,03,30,12,22,16.80
2016,03,30,12,23,16.80
2016,03,30,12,24,16.90
2016,03,30,12,25,16.90
2016,03,30,12,26,17.00
2016,03,30,12,27,17.00
2016,03,30,12,28,17.10
2016,03,30,12,29,17.20
2016,03,30,12,30,17.20
2016,03,30,12,31,17.40
2016,03,30,12,32,17.40
2016,03,30,12,33,17.50
2016,03,30,12,34,17.60
2016,03,30,12,35,17.60
2016,03,30,12,36,17.70
2016,03,30,12,37,17.70
2016,03,30,12,38,17.80
2016,03,30,12,39,17.80
2016,03,30,12,40,17.90
2016,03,30,12,41,18.00
2016,03,30,12,42,18.00
2016,03,30,12,43,18.00
2016,03,30,12,44,18.10
2016,03,30,12,45,18.10
2016,03,30,12,46,18.20
2016,03,30,12,47,18.20
2016,03,30,12,48,18.30
2016,03,30,12,49,18.40
2016,03,30,12,50,18.50
2016,03,30,12,51,18.60
2016,03,30,12,52,18.70
2016,03,30,12,53,18.80
2016,03,30,12,54,18.80
2016,03,30,12,55,18.80
2016,03,30,12,56,18.90
2016,03,30,12,57,18.90
2016,03,30,12,58,19.00
2016,03,30,12,59,19.00
2016,03,30,13,00,19.10
2016,03,30,13,01,19.10
2016,03,30,13,02,19.20
2016,03,30,13,03,19.30
2016,03,30,13,04,19.30
2016,03,30,13,05,19.30
2016,03,30,13,06,19.40
2016,03,30,13,07,19.50
2016,03,30,13,08,19.50
2016,03,30,13,09,19.60
2016,03,30,13,10,19.60
2016,03,30,13,11,19.60
2016,03,30,13,12,19.70
2016,03,30,13,13,19.80
2016,03,30,13,14,19.80
2016,03,30,13,15,19.80
2016,03,30,13,16,19.90
2016,03,30,13,17,19.90
2016,03,30,13,18,20.00
2016,03,30,13,19,20.10
2016,03,30,13,20,20.10
2016,03,30,13,21,20.20
2016,03,30,13,22,20.30
2016,03,30,13,23,20.40
2016,03,30,13,24,20.50
2016,03,30,13,25,20.60
2016,03,30,13,26,20.60
2016,03,30,13,27,20.60
2016,03,30,13,28,20.60
2016,03,30,13,29,20.50
2016,03,30,13,30,20.50
2016,03,30,13,31,20.40
2016,03,30,13,32,20.40
2016,03,30,13,33,20.40
2016,03,30,13,34,20.40
2016,03,30,13,35,20.40
2016,03,30,13,36,20.40
2016,03,30,13,37,20.40
2016,03,30,13,38,20.40
2016,03,30,13,39,20.50
2016,03,30,13,40,20.50
2016,03,30,13,41,20.60
2016,03,30,13,42,20.60
2016,03,30,13,43,20.60
2016,03,30,13,44,20.60
2016,03,30,13,45,20.70
2016,03,30,13,46,20.80
2016,03,30,13,47,20.80
2016,03,30,13,48,20.80
2016,03,30,13,49,20.80
2016,03,30,13,50,20.80
2016,03,30,13,51,20.90
2016,03,30,13,52,20.90
2016,03,30,13,53,20.90
2016,03,30,13,54,20.90
2016,03,30,13,55,20.90
2016,03,30,13,56,20.90
2016,03,30,13,57,20.90
2016,03,30,13,58,20.90
2016,03,30,13,59,20.90
2016,03,30,14,00,21.00
2016,03,30,14,01,21.00
2016,03,30,14,02,21.10
2016,03,30,14,03,21.10
2016,03,30,14,04,21.10
2016,03,30,14,05,21.20
2016,03,30,14,06,21.20
2016,03,30,14,07,21.20
2016,03,30,14,08,21.20
2016,03,30,14,09,21.20
2016,03,30,14,10,21.20
2016,03,30,14,11,21.20
2016,03,30,14,12,21.20
2016,03,30,14,13,21.20
2016,03,30,14,14,21.20
2016,03,30,14,15,21.30
2016,03,30,14,16,21.30
2016,03,30,14,17,21.30
2016,03,30,14,18,21.30
2016,03,30,14,19,21.40
2016,03,30,14,20,21.40
2016,03,30,14,21,21.40
2016,03,30,14,22,21.40
2016,03,30,14,23,21.40
2016,03,30,14,24,21.40
2016,03,30,14,25,21.50
2016,03,30,14,26,21.50
2016,03,30,14,27,21.50
2016,03,30,14,28,21.40
2016,03,30,14,29,21.40
2016,03,30,14,30,21.40
2016,03,30,14,31,21.30
2016,03,30,14,32,21.30
2016,03,30,14,33,21.40
2016,03,30,14,34,21.30
2016,03,30,14,35,21.30
2016,03,30,14,36,21.30
2016,03,30,14,37,21.30
2016,03,30,14,38,21.40
2016,03,30,14,39,21.40
2016,03,30,14,40,21.50
2016,03,30,14,41,21.50
2016,03,30,14,42,21.60
2016,03,30,14,43,21.60
2016,03,30,14,44,21.70
2016,03,30,14,45,21.70
2016,03,30,14,46,21.70
2016,03,30,14,47,21.60
2016,03,30,14,48,21.60
2016,03,30,14,49,21.60
2016,03,30,14,50,21.70
2016,03,30,14,51,21.70
2016,03,30,14,52,21.80
2016,03,30,14,53,21.80
2016,03,30,14,54,21.80
2016,03,30,14,55,21.90
2016,03,30,14,56,21.90
2016,03,30,14,57,21.90
2016,03,30,14,58,22.00
2016,03,30,14,59,22.00
2016,03,30,15,00,22.10
2016,03,30,15,01,22.10
2016,03,30,15,02,22.10
2016,03,30,15,03,22.20
2016,03,30,15,04,22.20
2016,03,30,15,05,22.20
2016,03,30,15,06,22.20
2016,03,30,15,07,22.20
2016,03,30,15,08,22.20
2016,03,30,15,09,22.20
2016,03,30,15,10,22.20
2016,03,30,15,11,22.20
2016,03,30,15,12,22.30
2016,03,30,15,13,22.30
2016,03,30,15,14,22.30
2016,03,30,15,15,22.30
2016,03,30,15,16,22.30
2016,03,30,15,17,22.40
2016,03,30,15,18,22.40
2016,03,30,15,19,22.40
2016,03,30,15,20,22.50
2016,03,30,15,21,22.50
2016,03,30,15,22,22.50
2016,03,30,15,23,22.50
2016,03,30,15,24,22.50
2016,03,30,15,25,22.40
2016,03,30,15,26,22.40
2016,03,30,15,27,22.30
2016,03,30,15,28,22.30
2016,03,30,15,29,22.30
2016,03,30,15,30,22.30
2016,03,30,15,31,22.30
2016,03,30,15,32,22.30
2016,03,30,15,33,22.30
2016,03,30,15,34,22.30
2016,03,30,15,35,22.30
2016,03,30,15,36,22.30
2016,03,30,15,37,22.30
2016,03,30,15,38,22.40
2016,03,30,15,39,22.30
2016,03,30,15,40,22.30
2016,03,30,15,41,22.30
2016,03,30,15,42,22.40
2016,03,30,15,43,22.40
2016,03,30,15,44,22.40
2016,03,30,15,45,22.40
2016,03,30,15,46,22.30
2016,03,30,15,47,22.30
2016,03,30,15,48,22.20
2016,03,30,15,49,22.20
2016,03,30,15,50,22.30
2016,03,30,15,51,22.30
2016,03,30,15,52,22.30
2016,03,30,15,53,22.20
2016,03,30,15,54,22.20
2016,03,30,15,55,22.20
2016,03,30,15,56,22.30
2016,03,30,15,57,22.30
2016,03,30,15,58,22.20
2016,03,30,15,59,22.20
2016,03,30,16,00,22.20
2016,03,30,16,01,22.30
2016,03,30,16,02,22.40
2016,03,30,16,03,22.40
2016,03,30,16,04,22.40
2016,03,30,16,05,22.40
2016,03,30,16,06,22.40
2016,03,30,16,07,22.40
2016,03,30,16,08,22.40
2016,03,30,16,09,22.40
2016,03,30,16,10,22.40
2016,03,30,16,11,22.40
2016,03,30,16,12,22.40
2016,03,30,16,13,22.40
2016,03,30,16,14,22.40
2016,03,30,16,15,22.50
2016,03,30,16,16,22.50
2016,03,30,16,17,22.50
2016,03,30,16,18,22.60
2016,03,30,16,19,22.50
2016,03,30,16,20,22.50
2016,03,30,16,21,22.50
2016,03,30,16,22,22.50
2016,03,30,16,23,22.50
2016,03,30,16,24,22.50
2016,03,30,16,25,22.50
2016,03,30,16,26,22.60
2016,03,30,16,27,22.50
2016,03,30,16,28,22.50
2016,03,30,16,29,22.50
2016,03,30,16,30,22.40
2016,03,30,16,31,22.40
2016,03,30,16,32,22.30
2016,03,30,16,33,22.30
2016,03,30,16,34,22.40
2016,03,30,16,35,22.30
2016,03,30,16,36,22.30
2016,03,30,16,37,22.30
2016,03,30,16,38,22.40
2016,03,30,16,39,22.40
2016,03,30,16,40,22.40
2016,03,30,16,41,22.40
2016,03,30,16,42,22.30
2016,03,30,16,43,22.30
2016,03,30,16,44,22.30
2016,03,30,16,45,22.20
2016,03,30,16,46,22.20
2016,03,30,16,47,22.20
2016,03,30,16,48,22.20
2016,03,30,16,49,22.20
2016,03,30,16,50,22.20
2016,03,30,16,51,22.20
2016,03,30,16,52,22.20
2016,03,30,16,53,22.20
2016,03,30,16,54,22.20
2016,03,30,16,55,22.20
2016,03,30,16,56,22.10
2016,03,30,16,57,22.10
2016,03,30,16,58,22.10
2016,03,30,16,59,22.00
2016,03,30,17,00,22.00
2016,03,30,17,01,22.00
2016,03,30,17,02,22.10
2016,03,30,17,03,22.10
2016,03,30,17,04,22.10
2016,03,30,17,05,22.10
2016,03,30,17,06,22.10
2016,03,30,17,07,22.10
2016,03,30,17,08,22.10
2016,03,30,17,09,22.10
2016,03,30,17,10,22.10
2016,03,30,17,11,22.10
2016,03,30,17,12,22.20
2016,03,30,17,13,22.20
2016,03,30,17,14,22.20
2016,03,30,17,15,22.20
2016,03,30,17,16,22.20
2016,03,30,17,17,22.20
2016,03,30,17,18,22.20
2016,03,30,17,19,22.20
2016,03,30,17,20,22.20
2016,03,30,17,21,22.20
2016,03,30,17,22,22.20
2016,03,30,17,23,22.20
2016,03,30,17,24,22.20
2016,03,30,17,25,22.20
2016,03,30,17,26,22.20
2016,03,30,17,27,22.10
2016,03,30,17,28,22.10
2016,03,30,17,29,22.10
2016,03,30,17,30,22.10
2016,03,30,17,31,22.00
2016,03,30,17,32,21.90
2016,03,30,17,33,21.90
2016,03,30,17,34,21.80
2016,03,30,17,35,21.80
2016,03,30,17,36,21.80
2016,03,30,17,37,21.80
2016,03,30,17,38,21.80
2016,03,30,17,39,21.70
2016,03,30,17,40,21.60
2016,03,30,17,41,21.50
2016,03,30,17,42,21.40
2016,03,30,17,43,21.40
2016,03,30,17,44,21.30
2016,03,30,17,45,21.30
2016,03,30,17,46,21.30